IDEFIX/ARIANE 42P - Orbit

View from above orbital plane
View from above orbital plane
View from above satellite
View from above satellite

Ground track
Ground track

The orbit data is extracted from the following two-line orbital elements,

1 27422U 02021B   13140.70488663  .00000198  00000-0  95002-4 0  2040
2 27422 098.3533 195.6846 0011318 327.5573 178.9257 14.28854327574082
Epoch (UTC): 20 May 2013 16:55:02
Eccentricity: 0.0011318
inclination: 98.3533°
perigee height: 787 km
apogee height: 803 km
right ascension of ascending node: 195.6846°
argument of perigee: 327.5573°
revolutions per day: 14.28854327
mean anomaly at epoch: 178.9257°
orbit number at epoch: 57408

The dashed part of the orbit path shows where the satellite is in the earth's shadow,  

Developed and maintained by Chris Peat, Heavens-Above GmbH. Please read the updated FAQ before sending e-mail. Imprint. DLR